GW2445 Weather Reports


Display with metric or nautical units.
time (UTC)temp
F
wind
direction
speed
MPH
gust
MPH
rain 1hr
in
rain 24hr
in
rain mn
in
humidity
%
barometer
mb
20240519050449 54 15 0.0 0.0 0.00 0.00 0.00 95 1011.6
20240519045927 55 15 0.0 0.0 0.00 0.00 0.00 95 1011.5
20240519045429 55 15 0.0 0.0 0.00 0.00 0.00 96 1011.6
20240519044927 55 15 0.0 0.0 0.00 0.00 0.00 95 1011.6
20240519044700 55 15 0.0 0.0 0.00 0.00 0.00 95 1011.7
20240519043924 55 15 0.0 0.0 0.00 0.00 0.00 95 1011.6
20240519043414 55 15 0.0 0.0 0.00 0.00 0.00 95 1011.6
20240519042907 56 15 0.0 0.0 0.00 0.00 0.00 95 1011.6
20240519042407 56 15 0.0 0.0 0.00 0.00 0.00 95 1011.5
20240519041840 56 15 0.0 0.0 0.00 0.00 0.00 95 1011.5
20240519041337 56 15 0.0 0.0 0.00 0.00 0.00 95 1011.6
20240519035832 56 15 0.0 0.0 0.00 0.01 0.01 95 1011.7
20240519035323 56 15 0.0 0.0 0.00 0.01 0.01 95 1011.8
20240519034737 56 15 0.0 0.0 0.00 0.01 0.01 95 1011.6
20240519034459 56 15 0.0 0.0 0.00 0.01 0.01 95 1011.7
20240519033948 56 15 0.0 0.0 0.00 0.01 0.01 95 1011.6
20240519033428 57 15 0.0 0.0 0.00 0.01 0.01 95 1011.7
20240519032708 57 15 0.0 0.0 0.00 0.01 0.01 95 1011.7
20240519032426 57 15 0.0 0.0 0.00 0.01 0.01 95 1011.7
20240519031631 57 15 0.0 0.0 0.00 0.01 0.01 94 1011.7
20240519031131 57 15 0.0 0.0 0.00 0.01 0.01 94 1011.7
20240519030624 57 15 0.0 0.0 0.00 0.01 0.01 94 1011.8
20240519025613 57 15 0.0 0.0 0.00 0.01 0.01 94 1011.8
20240519025330 57 15 0.0 0.0 0.00 0.01 0.01 94 1011.9
20240519024530 57 15 0.0 0.0 0.00 0.01 0.01 94 1011.8
20240519024029 58 15 0.0 0.0 0.00 0.01 0.01 94 1011.8
20240519023529 58 15 0.0 0.0 0.00 0.01 0.01 93 1011.7
20240519023029 58 15 0.0 0.0 0.00 0.01 0.01 93 1011.8
20240519022726 58 15 0.0 0.0 0.00 0.01 0.01 93 1011.9
20240519021959 58 15 0.0 0.0 0.00 0.01 0.01 93 1011.8
20240519021439 59 15 0.0 0.0 0.00 0.01 0.01 93 1011.7
20240519020420 59 15 0.0 0.0 0.00 0.01 0.01 92 1011.7
20240519020103 59 15 0.0 0.0 0.00 0.01 0.01 92 1011.7
20240519015344 59 15 0.0 0.0 0.00 0.01 0.01 92 1011.6
20240519014839 59 15 0.0 0.0 0.00 0.01 0.01 92 1011.6
20240519014332 60 15 0.0 0.0 0.00 0.01 0.01 91 1011.6
20240519013812 60 15 0.0 0.0 0.00 0.01 0.01 91 1011.6
20240519013309 60 15 0.0 0.0 0.00 0.01 0.01 90 1011.6
20240519012732 60 15 0.0 0.0 0.00 0.01 0.01 90 1011.5
20240519012233 61 15 0.0 0.0 0.00 0.01 0.01 89 1011.3
20240519011721 61 15 0.0 0.0 0.00 0.01 0.01 89 1011.3
20240519011152 61 15 0.0 0.0 0.00 0.01 0.01 88 1011.4
20240519010646 62 15 0.0 0.0 0.00 0.01 0.01 88 1011.4
20240519010350 62 15 0.0 0.0 0.00 0.01 0.01 88 1011.4
20240519005630 62 15 0.0 0.0 0.00 0.01 0.01 87 1011.4
20240519005124 63 15 0.0 0.0 0.00 0.01 0.01 86 1011.3
20240519004549 63 15 0.0 0.0 0.00 0.01 0.01 85 1011.4
20240519004046 63 15 0.0 2.0 0.00 0.01 0.01 85 1011.4
20240519003804 64 15 0.0 2.0 0.00 0.01 0.01 85 1011.3
20240519003031 64 15 0.0 0.0 0.00 0.01 0.01 84 1011.3
20240519002528 64 15 0.0 0.0 0.00 0.01 0.01 84 1011.3
20240519002025 65 15 0.0 0.0 0.00 0.01 0.01 83 1011.4
20240519001507 65 15 0.0 1.0 0.00 0.01 0.01 83 1011.5
20240519001002 65 15 0.0 1.0 0.00 0.01 0.01 83 1011.5
20240519000453 65 15 0.0 2.0 0.00 0.01 0.01 83 1011.6
20240519000156 65 15 0.0 2.0 0.00 0.01 0.01 82 1011.8
20240518235429 65 333 0.0 0.0 0.00 0.01 0.01 82 1011.7
20240518234929 65 333 0.0 4.0 0.00 0.01 0.01 82 1011.7
20240518234355 65 333 0.0 4.0 0.00 0.01 0.01 82 1011.6
20240518233350 66 333 1.0 5.0 0.00 0.01 0.01 80 1011.7
20240518232830 67 333 0.0 5.0 0.00 0.01 0.01 80 1011.7
20240518232327 67 313 0.0 4.0 0.00 0.01 0.01 79 1011.6
20240518231732 67 71 0.0 4.0 0.00 0.01 0.01 78 1011.6
20240518231229 67 350 1.0 5.0 0.00 0.01 0.01 79 1011.6
20240518230722 67 20 1.0 6.0 0.00 0.01 0.01 78 1011.6
20240518225703 67 69 1.0 4.0 0.00 0.01 0.01 77 1011.6
20240518225137 68 333 1.0 6.0 0.00 0.01 0.01 77 1011.6
20240518224635 68 47 1.0 6.0 0.00 0.01 0.01 76 1011.6
20240518224129 68 55 1.0 6.0 0.00 0.01 0.01 76 1011.6
20240518223623 69 34 0.0 6.0 0.00 0.01 0.01 76 1011.6
20240518223116 68 55 0.0 6.0 0.00 0.01 0.01 77 1011.6
20240518222606 69 36 1.0 6.0 0.00 0.01 0.01 76 1011.4
20240518222105 69 38 1.0 6.0 0.00 0.01 0.01 75 1011.4
20240518221602 69 27 0.0 4.0 0.00 0.01 0.01 75 1011.4
20240518221056 69 319 1.0 6.0 0.00 0.01 0.01 76 1011.4
20240518220550 69 15 1.0 6.0 0.00 0.01 0.01 76 1011.5
20240518220048 68 333 1.0 8.0 0.00 0.01 0.01 77 1011.5
20240518215543 68 344 2.0 10.0 0.00 0.01 0.01 76 1011.4
20240518215300 69 26 2.0 10.0 0.00 0.01 0.01 76 1011.4
20240518214532 69 76 1.0 9.0 0.00 0.01 0.01 76 1011.5
20240518214032 69 53 1.0 7.0 0.00 0.01 0.01 78 1011.4
20240518213528 69 85 1.0 7.0 0.00 0.01 0.01 76 1011.4
20240518213028 69 5 1.0 7.0 0.00 0.01 0.01 76 1011.5
20240518212504 69 334 1.0 7.0 0.00 0.01 0.01 76 1011.4
20240518211953 69 332 1.0 7.0 0.00 0.01 0.01 76 1011.4
20240518211448 69 53 2.0 8.0 0.00 0.01 0.01 76 1011.5
20240518210948 69 19 2.0 8.0 0.00 0.01 0.01 77 1011.5
20240518210712 69 49 1.0 5.0 0.00 0.01 0.01 77 1011.5
20240518205943 69 302 1.0 6.0 0.00 0.01 0.01 77 1011.5
20240518205441 69 331 1.0 6.0 0.00 0.01 0.01 77 1011.6
20240518204937 69 15 0.0 6.0 0.00 0.01 0.01 79 1011.5
20240518204431 68 22 1.0 6.0 0.00 0.01 0.01 80 1011.4
20240518203857 68 78 1.0 5.0 0.00 0.01 0.01 81 1011.3
20240518203355 68 47 1.0 5.0 0.00 0.01 0.01 80 1011.5
20240518202855 68 345 1.0 4.0 0.00 0.01 0.01 81 1011.6
20240518202354 68 63 1.0 5.0 0.00 0.01 0.01 82 1011.4
20240518201839 68 47 1.0 5.0 0.00 0.01 0.01 81 1011.5
20240518201330 68 340 1.0 6.0 0.00 0.01 0.01 83 1011.4
20240518200830 67 71 1.0 6.0 0.00 0.01 0.01 82 1011.5
20240518200322 67 65 2.0 6.0 0.00 0.01 0.01 81 1011.5
20240518200040 68 317 2.0 7.0 0.00 0.01 0.01 81 1011.6
20240518195316 68 326 2.0 7.0 0.00 0.01 0.01 82 1011.6
20240518194811 68 300 1.0 5.0 0.00 0.01 0.01 81 1011.6
20240518194306 68 347 2.0 5.0 0.00 0.01 0.01 83 1011.7
20240518193802 68 22 1.0 11.0 0.00 0.01 0.01 82 1011.7
20240518193250 68 321 1.0 11.0 0.00 0.01 0.01 82 1011.8
20240518192749 67 14 2.0 7.0 0.00 0.01 0.01 83 1011.8
20240518192244 67 38 1.0 7.0 0.00 0.01 0.01 83 1011.9
20240518191748 67 46 1.0 5.0 0.00 0.01 0.01 84 1011.8
20240518191242 66 14 2.0 6.0 0.00 0.01 0.01 84 1011.8
20240518190232 66 20 1.0 6.0 0.00 0.01 0.01 85 1011.8
20240518185729 66 344 1.0 6.0 0.00 0.01 0.01 85 1011.7
20240518185229 66 347 1.0 5.0 0.00 0.01 0.01 86 1011.6
20240518184727 65 298 1.0 5.0 0.00 0.01 0.01 86 1011.8
20240518184225 65 49 1.0 6.0 0.00 0.01 0.01 85 1011.9
20240518183723 65 11 1.0 6.0 0.00 0.01 0.01 85 1011.9
20240518183219 65 344 1.0 5.0 0.00 0.01 0.01 85 1011.8
20240518182713 65 349 1.0 5.0 0.00 0.01 0.01 86 1011.9
20240518182203 65 304 1.0 5.0 0.00 0.01 0.01 86 1011.9
20240518181637 65 78 1.0 4.0 0.00 0.01 0.01 86 1011.8
20240518181134 65 355 2.0 5.0 0.00 0.01 0.01 86 1011.8
20240518180629 65 323 2.0 5.0 0.00 0.01 0.01 86 1011.9
20240518180128 66 355 1.0 5.0 0.00 0.01 0.01 86 1011.9
20240518175626 66 331 0.0 4.0 0.00 0.01 0.01 86 1012.0
20240518175116 66 333 1.0 4.0 0.00 0.01 0.01 86 1012.1
20240518174611 66 346 1.0 9.0 0.00 0.01 0.01 85 1012.1
20240518174103 66 312 2.0 9.0 0.00 0.01 0.01 85 1012.1
20240518173550 66 278 2.0 6.0 0.00 0.01 0.01 86 1012.1
20240518173042 66 71 1.0 6.0 0.00 0.01 0.01 87 1012.0
20240518172541 66 355 1.0 6.0 0.00 0.01 0.01 86 1012.1
20240518172029 66 347 1.0 7.0 0.00 0.01 0.01 88 1012.1
20240518171019 66 309 2.0 9.0 0.00 0.01 0.01 86 1012.1
20240518170515 66 302 2.0 9.0 0.00 0.01 0.01 87 1012.0
20240518170010 67 288 1.0 6.0 0.00 0.01 0.01 87 1012.2
20240518165507 67 320 1.0 6.0 0.00 0.01 0.01 87 1012.1
20240518165007 66 302 2.0 5.0 0.00 0.01 0.01 87 1012.1
20240518164503 67 315 1.0 5.0 0.00 0.01 0.01 87 1012.2
20240518164001 67 355 1.0 4.0 0.00 0.01 0.01 86 1012.3
20240518163206 66 0 1.0 5.0 0.00 0.01 0.01 87 1012.4
20240518162444 65 355 0.0 3.0 0.00 0.01 0.01 88 1012.5
20240518161924 65 355 1.0 5.0 0.00 0.01 0.01 90 1012.5
20240518161422 65 348 1.0 5.0 0.00 0.01 0.01 90 1012.4
20240518160919 65 337 0.0 3.0 0.00 0.01 0.01 90 1012.4
20240518160413 65 321 0.0 3.0 0.00 0.01 0.01 92 1012.3
20240518155905 64 322 0.0 4.0 0.00 0.01 0.01 92 1012.4
20240518155628 64 321 1.0 4.0 0.00 0.01 0.01 93 1012.3
20240518155108 64 290 1.0 4.0 0.00 0.01 0.01 94 1012.4
20240518154343 64 288 0.0 4.0 0.00 0.01 0.01 94 1012.4
20240518153841 63 355 0.0 1.0 0.00 0.01 0.01 94 1012.2
20240518153338 63 62 0.0 4.0 0.00 0.01 0.01 95 1012.2
20240518152835 63 62 0.0 4.0 0.00 0.01 0.01 95 1012.2
20240518151822 62 355 0.0 4.0 0.00 0.01 0.01 96 1012.3
20240518151314 62 355 0.0 4.0 0.00 0.01 0.01 96 1012.2
20240518150804 62 326 0.0 4.0 0.00 0.01 0.01 97 1012.1
20240518150253 62 36 1.0 3.0 0.00 0.01 0.01 97 1012.0
20240518145741 61 37 1.0 5.0 0.00 0.01 0.01 97 1011.9
20240518145230 61 36 0.0 5.0 0.00 0.01 0.01 97 1011.8
20240518144729 61 12 1.0 5.0 0.00 0.01 0.01 97 1011.8
20240518144222 61 13 1.0 5.0 0.00 0.01 0.01 97 1011.7
20240518143713 61 324 0.0 4.0 0.00 0.01 0.01 97 1011.6
20240518143208 62 61 0.0 2.0 0.00 0.01 0.01 97 1011.6
20240518142710 61 61 0.0 4.0 0.00 0.01 0.01 97 1011.7
20240518142158 61 61 0.0 4.0 0.00 0.01 0.01 97 1011.6
20240518141654 61 61 0.0 0.0 0.00 0.01 0.01 97 1011.6
20240518141414 61 61 0.0 0.0 0.00 0.01 0.01 97 1011.6
20240518140901 61 61 0.0 1.0 0.00 0.01 0.01 98 1011.5
20240518140128 61 61 0.0 3.0 0.00 0.01 0.01 97 1011.4
20240518135626 61 61 0.0 3.0 0.00 0.01 0.01 98 1011.5
20240518135344 61 61 0.0 1.0 0.00 0.01 0.01 97 1011.5
20240518134611 61 61 0.0 1.0 0.00 0.01 0.01 98 1011.5
20240518134101 60 61 0.0 0.0 0.00 0.01 0.01 98 1011.6
20240518133553 60 61 0.0 2.0 0.00 0.01 0.01 98 1011.6
20240518133049 60 61 1.0 4.0 0.00 0.01 0.01 97 1011.6
20240518132540 60 61 0.0 4.0 0.00 0.01 0.01 98 1011.5
20240518132035 60 61 0.0 3.0 0.00 0.01 0.01 97 1011.5
20240518131531 60 61 1.0 5.0 0.00 0.01 0.01 97 1011.6
20240518131023 60 61 1.0 5.0 0.00 0.01 0.01 98 1011.5
20240518130507 60 78 0.0 3.0 0.00 0.01 0.01 98 1011.4
20240518130003 60 80 0.0 2.0 0.00 0.01 0.01 97 1011.4
20240518125454 59 80 1.0 5.0 0.00 0.01 0.01 97 1011.3
20240518124949 59 80 1.0 5.0 0.00 0.01 0.01 97 1011.3
20240518124441 59 46 1.0 4.0 0.00 0.01 0.01 98 1011.3
20240518123926 59 46 1.0 3.0 0.00 0.01 0.01 98 1011.3
20240518123638 59 46 1.0 4.0 0.00 0.01 0.01 98 1011.2
20240518122904 59 348 0.0 4.0 0.00 0.01 0.01 98 1011.3
20240518122357 59 66 1.0 3.0 0.00 0.01 0.01 97 1011.3
20240518122052 59 66 1.0 3.0 0.00 0.01 0.01 97 1011.3
20240518121328 58 66 0.0 2.0 0.00 0.01 0.01 97 1011.3
20240518120826 58 66 0.0 2.0 0.00 0.01 0.01 98 1011.3
20240518120324 58 68 1.0 4.0 0.00 0.01 0.01 98 1011.4
20240518115818 58 68 1.0 4.0 0.00 0.01 0.01 97 1011.3
20240518115535 58 294 0.0 0.0 0.00 0.01 0.01 97 1011.3
20240518115030 58 294 0.0 1.0 0.00 0.01 0.01 97 1011.3
20240518114307 58 294 0.0 1.0 0.00 0.01 0.01 97 1011.3
20240518114025 58 294 0.0 1.0 0.00 0.01 0.01 97 1011.2
20240518113255 58 294 0.0 0.0 0.00 0.01 0.01 97 1010.9
20240518112756 58 294 0.0 0.0 0.00 0.01 0.01 97 1010.9
20240518112249 57 294 0.0 0.0 0.00 0.01 0.01 97 1011.0
20240518111732 57 294 0.0 0.0 0.00 0.01 0.01 97 1011.0
20240518111230 57 294 0.0 0.0 0.00 0.01 0.01 97 1010.9
20240518110725 57 294 0.0 0.0 0.00 0.01 0.01 97 1010.8
20240518110223 57 294 0.0 0.0 0.00 0.01 0.01 97 1010.7
20240518105719 57 294 0.0 0.0 0.00 0.01 0.01 97 1010.6
20240518105216 57 294 0.0 0.0 0.00 0.01 0.01 97 1010.5
20240518104938 57 294 0.0 0.0 0.00 0.01 0.01 97 1010.5
20240518104150 57 294 0.0 0.0 0.00 0.01 0.01 97 1010.4
20240518103906 57 294 0.0 3.0 0.00 0.01 0.01 97 1010.2
20240518103137 57 294 0.0 3.0 0.00 0.01 0.01 97 1010.2
20240518102634 57 294 0.0 3.0 0.00 0.01 0.01 97 1010.1
20240518102128 57 294 0.0 2.0 0.00 0.01 0.01 97 1010.0
20240518101624 57 294 0.0 2.0 0.00 0.01 0.01 97 1010.0
20240518101109 57 294 1.0 2.0 0.00 0.01 0.01 97 1010.0
20240518100825 58 294 0.0 2.0 0.00 0.01 0.01 97 1009.9
20240518100057 58 294 1.0 4.0 0.00 0.01 0.01 96 1009.7
20240518095539 58 294 1.0 4.0 0.00 0.01 0.01 96 1009.7
20240518095028 59 294 1.0 5.0 0.00 0.01 0.01 96 1009.9
20240518094526 61 350 1.0 5.0 0.00 0.01 0.01 97 1009.8
20240518094246 62 288 0.0 5.0 0.00 0.01 0.01 97 1009.6
20240518093515 62 169 0.0 0.0 0.00 0.01 0.01 97 1009.5
20240518092948 62 169 0.0 0.0 0.00 0.01 0.01 97 1009.4
20240518092431 62 169 0.0 0.0 0.00 0.01 0.01 97 1009.3
20240518091926 62 169 0.0 0.0 0.00 0.01 0.01 97 1009.3
20240518091631 62 169 0.0 0.0 0.00 0.01 0.01 97 1009.2
20240518090853 62 169 0.0 0.0 0.00 0.01 0.01 97 1009.2
20240518090329 62 169 0.0 0.0 0.00 0.01 0.01 97 1009.2
20240518085830 62 169 0.0 0.0 0.00 0.01 0.01 97 1009.2
20240518085321 62 169 0.0 0.0 0.00 0.01 0.01 97 1009.2
20240518084750 62 169 0.0 0.0 0.00 0.01 0.01 97 1009.1
20240518084240 62 169 0.0 0.0 0.00 0.01 0.01 97 1009.1
20240518083732 62 169 0.0 0.0 0.00 0.01 0.01 97 1009.0
20240518083219 62 169 0.0 0.0 0.00 0.01 0.01 97 1008.9
20240518082713 62 169 0.0 0.0 0.00 0.01 0.01 97 1008.9
20240518082142 62 169 0.0 0.0 0.00 0.01 0.01 97 1008.9
20240518081629 62 169 0.0 0.0 0.00 0.01 0.01 97 1008.9
20240518081059 62 169 0.0 0.0 0.00 0.01 0.01 97 1008.8
20240518080534 61 169 0.0 0.0 0.00 0.01 0.01 97 1008.8
20240518080026 61 169 0.0 0.0 0.00 0.01 0.01 97 1008.5
20240518075522 61 169 0.0 0.0 0.00 0.01 0.01 97 1008.5
20240518075002 61 169 0.0 0.0 0.00 0.01 0.01 97 1008.4
20240518074710 61 169 0.0 0.0 0.00 0.01 0.01 97 1008.3
20240518073953 61 169 0.0 0.0 0.00 0.01 0.01 97 1008.3
20240518073654 61 169 0.0 0.0 0.00 0.01 0.01 97 1008.3
20240518072931 61 169 0.0 0.0 0.00 0.01 0.01 97 1008.2
20240518072645 61 169 0.0 0.0 0.00 0.01 0.01 97 1008.2
20240518071913 62 169 0.0 0.0 0.00 0.01 0.01 97 1008.1
20240518071354 62 169 0.0 0.0 0.00 0.01 0.01 97 1008.1
20240518070852 62 169 0.0 0.0 0.00 0.01 0.01 97 1008.2
20240518070353 62 169 0.0 0.0 0.00 0.01 0.01 97 1008.2
20240518065849 62 169 0.0 0.0 0.00 0.01 0.01 97 1008.2
20240518065556 62 169 0.0 0.0 0.00 0.01 0.01 97 1008.2
20240518064823 63 169 0.0 0.0 0.00 0.01 0.01 97 1008.1
20240518064319 63 169 0.0 0.0 0.00 0.01 0.01 97 1008.2
20240518063813 63 169 0.0 0.0 0.01 0.01 0.01 97 1008.2
20240518063307 63 169 0.0 0.0 0.01 0.01 0.01 97 1008.2
20240518062807 63 169 0.0 0.0 0.01 0.01 0.01 97 1008.1
20240518062259 62 169 0.0 0.0 0.01 0.01 0.01 97 1008.1
20240518061800 62 169 0.0 0.0 0.01 0.01 0.01 97 1008.1
20240518061300 62 169 0.0 0.0 0.01 0.01 0.01 97 1008.1
20240518060228 62 169 0.0 2.0 0.01 0.01 0.01 97 1008.2
20240518055216 62 169 0.0 1.0 0.01 0.01 0.01 97 1008.2
20240518054652 63 169 0.0 1.0 0.01 0.01 0.01 97 1008.3
20240518054149 63 169 0.0 0.0 0.01 0.01 0.01 97 1008.3
20240518053641 63 169 0.0 0.0 0.00 0.00 0.00 97 1008.4
20240518053127 63 169 0.0 0.0 0.00 0.00 0.00 97 1008.4
20240518052627 63 169 0.0 0.0 0.00 0.00 0.00 97 1008.5
20240518052126 63 169 0.0 0.0 0.00 0.00 0.00 97 1008.6
20240518051607 63 169 0.0 0.0 0.00 0.00 0.00 97 1008.6
20240518051055 63 169 0.0 0.0 0.00 0.00 0.00 97 1008.7